User: anonymous   Login
Location: A O Calhoun Middle School
(33.2198°N, 97.1397°W)
Time: 08:18:20
(UTC+00:00)
Language:

Cosmos 1428 Rocket - Orbit

View from above orbital plane
View from above orbital plane
View from above satellite
View from above satellite

Ground track
Ground track

The orbit data is extracted from the following two-line orbital elements,

1 13758U 83001B   22140.43946669  .00000110  00000-0  92599-4 0  9992
2 13758  82.9141  41.6101 0026864 339.4354  20.5720 13.78845952979194
Epoch (UTC): 20 May 2022 10:32:49
Eccentricity: 0.0026864
inclination: 82.9141°
perigee height: 948 km
apogee height: 988 km
right ascension of ascending node: 41.6101°
argument of perigee: 339.4354°
revolutions per day: 13.78845952
mean anomaly at epoch: 20.5720°
orbit number at epoch: 97919

The dashed part of the orbit path shows where the satellite is in the earth's shadow,  

DLR